Location: Jetmore
(38.0845°N, 99.8935°W)
Time: 21:58:13
(UTC+00:00)

CZ-3 R/B - Pass Details

Date: 29 October 2020
Orbit: 373 x 10235 km, 28.4° (Epoch: 30 November)

Event Time Altitude Azimuth Distance (km) Brightness Sun altitude
Exits shadow 11:59:47 11° 262° (W) 8,348 5.7 -13.0°
Maximum altitude 12:20:23 49° 196° (SSW) 2,189 3.3 -9.0°
Drops below altitude 10° 12:26:36 10° 122° (ESE) 2,691 5.2 -7.8°
Sets 12:28:18 0° 115° (ESE) 3,263 6.2 -7.4°
